Theta_e
335 335 335 334 333 332 331 331 330 329 329 330 329 326 325 326 326 326 325 325 322 321 321 321 321 321 321 321 321 322 320 319 312 320 321 322 321 321 322 325 325 326 326
330 330 330 331 330 329 328 328 327 324 325 325 323 322 322 321 320 320 319 319 318 317 317 317 317 317 316 317 317 317 318 318 315 312 317 318 317 321 321 321 320 323 323
328 328 326 326 325 324 325 326 324 322 321 321 320 320 320 320 319 317 316 316 316 315 315 314 314 313 313 314 314 314 316 317 316 315 313 318 317 319 319 320 317 319 319
326 325 325 325 325 325 325 323 322 320 317 317 318 317 317 316 316 315 313 314 313 313 313 313 313 312 312 313 314 314 314 313 314 314 315 315 317 319 316 313 313 316 318
328 328 327 327 326 325 322 320 319 317 317 315 313 313 314 313 311 313 313 312 310 310 311 311 312 313 315 317 316 315 313 311 312 310 312 312 313 313 312 316 314 314 313
329 327 324 324 323 321 319 318 318 318 316 312 310 310 311 311 308 307 311 309 309 308 307 309 310 311 312 312 312 312 313 311 310 309 310 308 311 312 314 314 314 311 308
325 322 320 322 321 321 320 320 316 315 313 310 309 309 311 313 305 304 307 309 308 307 307 307 307 308 309 309 310 309 309 308 311 311 308 309 309 312 312 312 312 312 310
318 318 318 321 322 321 321 319 315 312 311 310 309 310 311 311 304 302 304 309 308 308 308 308 306 307 308 307 307 308 308 309 310 309 310 310 311 312 311 312 313 313 314
315 316 317 318 316 315 314 314 312 310 310 309 309 311 310 310 302 301 303 307 307 307 307 308 307 306 302 300 300 302 304 306 308 306 305 304 303 302 305 309 308 307 308
313 313 315 314 314 313 312 307 307 309 309 310 310 310 306 307 302 299 302 305 305 305 307 306 303 303 299 298 299 297 297 301 304 305 306 305 304 307 304 309 310 307 308
312 312 312 313 311 310 308 309 310 309 310 309 308 307 306 305 305 299 299 305 304 304 303 303 304 299 298 297 297 299 299 302 302 302 303 304 305 306 307 310 310 309 307
311 310 310 310 308 310 309 309 309 308 307 307 304 304 306 306 301 300 298 298 300 301 302 302 303 297 296 296 299 298 297 299 301 300 300 301 302 306 307 309 310 310 312
309 308 309 310 310 310 309 309 307 307 305 304 303 303 303 304 305 300 298 297 299 302 302 301 298 296 296 300 300 299 301 304 302 300 301 303 305 306 307 307 309 311 310
309 308 308 308 308 308 308 307 306 305 304 303 302 301 301 303 303 303 301 303 302 303 300 299 299 298 297 299 303 305 305 306 305 303 303 305 307 307 307 308 307 308 307
306 307 307 307 306 306 305 304 305 304 302 303 301 301 301 301 302 296 295 298 299 297 295 300 300 299 300 300 301 303 306 306 305 305 304 303 303 306 307 308 307 307 304
306 306 305 305 304 304 303 304 296 296 294 295 294 298 302 298 295 293 293 293 291 293 298 297 297 297 297 297 297 299 302 302 303 303 303 305 302 302 303 306 307 307 304
307 306 305 304 303 302 302 301 300 299 296 295 295 295 293 293 292 293 294 295 292 295 297 296 296 295 295 296 297 297 297 299 300 300 300 304 303 304 303 303 304 306 306
307 301 304 302 302 301 300 300 300 299 299 300 298 295 294 292 292 292 293 295 298 296 296 295 294 295 295 295 296 297 299 298 298 298 299 301 305 303 302 301 304 304 301
307 305 303 303 302 299 300 299 299 299 299 299 299 298 297 293 292 291 292 297 295 294 294 294 295 294 294 295 295 296 297 297 296 298 298 298 301 303 301 302 303 297 299
306 300 299 303 300 300 299 299 298 298 298 298 299 300 300 299 299 297 297 296 295 295 295 294 294 294 294 294 295 296 297 297 297 296 296 298 297 302 302 302 302 301 300
304 305 299 302 300 300 299 299 298 298 298 299 300 298 286 297 298 297 297 296 295 295 295 294 294 294 294 294 294 294 295 296 297 297 296 297 297 298 301 302 301 301 299
306 305 303 302 300 300 299 299 298 298 299 300 301 301 290 299 298 297 297 296 296 295 295 295 294 294 293 292 292 293 294 295 296 296 297 296 297 299 299 300 300 300 299
307 304 303 302 301 298 301 301 301 300 300 301 301 302 301 299 298 298 297 297 296 295 295 295 294 294 294 292 293 292 290 292 292 295 298 298 296 297 299 299 299 301 299
305 306 305 304 303 303 301 301 301 296 300 299 299 298 299 298 298 298 297 297 296 295 294 293 292 292 293 292 292 292 292 291 291 297 300 299 298 296 296 298 299 298 299
302 299 298 298 299 298 297 297 298 297 297 297 296 296 296 296 295 296 297 296 295 293 293 292 291 291 291 291 291 291 288 286 290 287 302 301 300 299 298 299 300 300 298
297 296 296 296 296 295 295 295 295 296 295 296 295 295 295 294 294 295 295 294 293 293 293 292 292 292 291 291 290 286 285 286 288 287 300 304 301 300 301 300 298 298 300
Wind_Speed
7 4 4 4 5 4 3 2 3 2 3 2 4 3 3 3 3 3 3 3 3 4 3 3 5 3 3 4 3 4 6 5 7 5 3 2 5 10 8 8 8 10 9
6 4 4 5 5 5 3 3 4 5 5 5 5 5 4 4 4 5 4 4 3 4 5 5 6 4 6 5 3 6 5 6 4 9 6 4 7 7 8 9 7 6 6
6 5 5 5 5 5 5 5 6 5 5 4 4 4 2 3 3 2 1 2 3 4 4 5 6 5 6 4 5 5 5 5 5 4 5 3 3 4 5 7 5 5 4
6 4 5 5 5 5 6 6 5 5 6 4 4 2 1 2 3 3 3 3 4 5 5 5 6 6 7 7 6 7 5 5 6 7 5 6 5 5 4 5 5 4 7
6 6 4 4 5 6 6 5 5 5 5 3 3 3 2 2 2 3 4 4 4 6 6 5 4 7 12 9 5 7 6 4 5 6 6 4 5 4 5 4 5 5 4
6 6 5 6 6 5 5 5 4 2 4 3 1 2 2 3 6 6 3 3 4 5 6 6 6 10 10 12 11 9 8 6 6 4 5 6 8 5 4 5 6 3 4
6 6 6 5 5 6 6 4 3 3 1 2 3 3 5 5 8 10 7 4 5 6 7 6 8 7 10 8 10 11 9 8 10 5 7 7 7 4 3 5 6 5 5
6 6 5 5 4 3 3 2 0 1 1 3 3 4 4 4 8 8 7 5 5 6 5 5 5 8 8 10 11 10 10 9 8 4 6 9 8 7 6 6 6 3 2
5 5 4 4 4 3 3 3 3 4 3 3 3 4 3 5 8 9 7 6 5 6 6 7 8 9 12 12 10 11 13 11 7 9 11 12 13 9 7 4 5 4 3
5 4 4 5 4 5 4 4 3 2 3 2 3 2 2 5 6 6 5 3 5 6 7 7 9 10 14 11 9 9 10 13 11 12 9 8 9 9 11 8 6 7 4
4 3 1 1 2 3 4 3 2 2 2 2 4 3 4 3 5 5 7 4 4 5 4 5 6 11 15 17 14 8 9 11 12 9 8 8 8 7 7 7 8 6 7
3 3 1 1 2 2 2 2 2 2 3 4 5 6 3 4 5 5 6 4 5 4 4 5 7 12 15 16 11 13 13 11 5 5 5 6 6 7 5 7 7 7 7
4 2 1 2 2 3 3 1 2 2 3 4 3 4 6 5 4 6 5 6 4 4 4 8 13 14 13 10 10 13 9 4 4 3 5 6 5 5 4 3 5 7 7
4 3 2 4 3 3 2 1 2 2 2 2 4 4 4 4 5 5 5 5 6 5 8 8 9 11 11 10 8 7 4 4 5 5 5 6 6 3 4 4 4 4 4
5 3 3 2 3 3 3 3 1 2 1 1 1 2 4 5 4 5 5 5 5 5 6 3 5 7 7 8 8 7 7 6 7 7 6 6 6 6 4 4 4 4 4
3 2 1 2 2 2 1 1 5 6 6 4 2 1 2 7 8 9 8 5 5 6 3 4 6 7 7 8 8 8 7 8 7 8 7 5 6 4 4 3 4 5 5
2 1 1 1 2 2 2 1 2 3 3 3 3 1 4 7 6 5 4 6 9 5 5 6 6 7 7 7 7 7 7 7 8 7 7 6 7 5 2 2 3 5 4
6 5 1 2 2 2 1 2 2 3 2 2 4 5 8 8 7 10 7 5 6 7 5 6 7 7 7 7 7 7 7 7 7 7 8 8 8 6 3 5 6 4 7
6 2 3 2 2 2 2 3 3 3 2 2 3 4 6 7 6 8 8 5 5 7 7 7 6 6 7 7 7 7 8 8 7 7 8 8 7 5 7 7 4 9 11
4 2 4 3 2 3 3 4 3 2 2 2 2 3 5 4 2 4 4 4 6 6 6 6 7 7 7 8 8 8 8 9 9 9 9 9 6 6 6 8 8 10 11
3 0 5 3 2 3 3 3 2 1 1 0 1 1 1 1 2 2 3 4 5 5 5 5 6 7 7 8 9 8 8 8 8 8 9 8 7 5 5 6 7 8 9
3 2 2 2 2 1 2 1 1 1 3 4 2 2 2 1 1 0 2 3 4 4 4 5 5 5 6 7 8 9 8 8 9 9 8 8 8 6 4 5 7 7 7
1 3 1 1 1 0 1 2 4 3 4 4 4 4 2 1 1 1 2 3 3 4 4 5 6 6 7 6 6 6 7 8 7 7 7 7 7 7 6 6 5 7 7
3 2 4 1 1 2 1 2 1 2 3 4 5 5 5 5 4 4 2 2 3 4 5 5 6 8 8 8 7 7 6 8 6 6 7 5 6 7 5 5 7 8 8
6 6 7 6 6 5 4 5 5 6 6 6 6 6 6 7 8 6 3 3 4 4 6 6 6 9 10 12 12 13 13 12 8 6 5 5 7 8 6 5 8 9 8
7 8 7 6 7 7 6 6 6 6 6 6 6 6 8 7 6 6 6 5 4 5 6 5 8 11 12 10 12 13 11 11 9 9 5 5 4 5 4 6 7 5 8
Wind_Direction
101 87 104 119 131 131 146 134 103 22 29 53 73 94 81 74 56 57 41 24 359 342 342 317 303 305 292 296 286 278 279 277 282 286 266 261 244 239 242 242 245 231 220
87 97 105 113 122 121 137 126 89 84 84 103 96 79 65 52 39 28 14 18 1 334 321 325 302 327 312 303 296 290 279 276 263 277 284 282 260 255 249 242 237 231 230
106 101 96 98 116 142 115 111 115 114 98 92 86 78 54 35 31 16 325 302 288 277 289 291 286 303 296 296 294 285 276 276 263 252 267 268 260 261 269 249 238 231 225
106 125 108 139 150 109 110 117 127 133 137 134 100 90 102 157 211 238 280 286 308 306 288 276 278 282 280 287 285 282 284 287 284 280 259 264 258 252 227 266 264 241 255
116 116 131 124 107 125 124 132 153 151 122 119 172 182 172 223 254 291 294 299 299 311 309 304 293 293 295 271 268 279 283 279 281 279 281 254 261 250 236 238 245 266 247
110 96 114 112 102 118 135 158 148 140 146 185 173 258 260 245 257 267 239 314 319 303 301 307 306 304 309 296 301 276 247 259 274 274 282 270 271 265 269 257 260 267 285
104 117 117 137 152 149 172 162 159 216 71 359 288 313 306 309 326 342 8 338 311 307 298 308 322 322 320 312 306 299 288 261 236 251 277 278 287 282 292 269 243 247 260
113 116 122 130 136 121 146 208 233 351 261 278 303 288 297 307 350 1 343 316 310 306 312 333 313 312 320 327 324 304 292 283 277 242 243 266 265 284 266 279 286 244 255
115 122 119 123 134 180 229 262 248 245 264 265 263 272 296 315 342 348 335 328 333 336 338 343 340 346 342 343 322 304 296 287 277 257 251 247 261 253 248 264 247 220 248
140 160 178 175 182 216 235 270 268 273 288 294 279 306 327 316 330 347 15 344 346 339 334 344 339 342 324 322 314 302 291 288 296 299 293 279 270 268 218 217 239 238 209
167 149 151 243 248 245 242 229 264 262 269 288 321 328 311 326 333 18 13 351 340 325 339 346 325 317 329 329 319 299 275 288 296 292 292 286 279 278 262 219 220 224 222
135 125 142 347 317 316 291 357 2 354 332 339 331 313 322 348 347 19 15 19 336 312 327 315 305 318 316 313 318 311 295 289 283 287 279 279 274 273 239 236 217 218 232
147 156 100 98 96 116 117 58 340 333 334 322 320 317 329 347 353 359 346 337 316 301 295 301 302 300 300 306 313 318 330 319 296 286 276 282 269 254 251 233 229 220 227
94 92 88 97 86 67 43 341 324 340 326 338 348 352 346 350 351 352 341 342 329 326 341 320 309 294 284 283 313 315 309 317 318 310 306 302 294 252 250 226 218 186 197
111 88 62 26 15 11 19 1 11 86 251 59 40 354 346 344 337 298 298 334 330 330 325 327 351 354 344 342 329 317 313 317 322 319 308 302 292 292 260 215 202 182 200
104 116 16 346 1 356 10 194 65 93 80 112 123 351 325 261 309 330 339 338 12 5 16 1 349 346 347 341 338 333 343 341 336 326 308 308 319 282 284 265 212 199 184
33 146 244 6 356 359 48 35 22 10 50 40 3 4 4 287 325 6 19 41 24 21 17 359 352 349 341 338 338 339 333 330 327 343 328 320 332 314 290 273 244 220 186
319 312 355 78 86 59 53 81 76 60 70 3 319 358 359 18 54 47 28 25 13 22 16 359 350 350 345 341 347 342 335 340 349 344 344 335 331 326 311 270 227 167 136
264 204 133 112 89 116 100 82 86 96 74 37 351 357 358 9 53 55 43 49 17 17 9 5 2 358 354 351 354 350 349 350 347 348 348 345 329 349 350 14 103 122 119
280 196 133 124 135 113 99 98 101 73 56 30 360 3 346 346 34 41 41 31 27 26 16 14 8 5 0 359 354 351 354 1 359 1 357 356 342 354 21 32 36 83 85
303 236 155 123 147 128 123 139 153 166 175 225 311 298 194 314 3 50 56 40 26 25 18 12 7 4 1 1 354 350 350 352 354 358 359 1 360 4 5 34 72 88 89
359 198 161 150 143 168 136 92 310 302 304 303 315 324 2 127 111 108 79 59 39 36 23 2 1 357 355 348 343 351 353 351 351 352 355 355 9 24 29 39 71 85 97
219 156 144 107 323 193 201 231 261 291 313 310 309 319 10 46 99 75 90 72 47 37 24 8 356 352 353 343 338 340 340 339 329 332 347 4 11 23 39 60 58 88 105
46 67 93 57 203 285 308 283 352 350 22 44 58 52 54 52 42 53 75 70 50 40 31 19 8 360 347 347 344 345 350 338 319 329 352 20 27 25 37 68 88 82 94
43 39 39 25 26 26 42 72 75 69 69 59 57 58 53 55 36 12 35 56 42 38 30 20 13 2 357 350 350 347 342 338 347 328 354 20 53 41 52 78 103 102 94
51 50 46 43 43 42 33 42 55 56 56 61 59 56 53 45 31 22 39 36 31 25 20 15 7 5 359 351 347 336 337 343 348 343 355 16 32 59 60 71 82 107 132